Location: Christian Reformed Church
(43.0975°N, 93.8113°W)
Time: 03:38:17
(UTC+00:00)

Meteor 1-19 Rocket - Pass Details

Date: 13 December 2025
Orbit: 808 x 924 km, 81.2° (Epoch: 13 January)

Event Time Altitude Azimuth Distance (km) Brightness Sun altitude
Rises 12:36:34 0° 348° (NNW) 3,492 7.1 -11.0°
Reaches altitude 10° 12:39:00 10° 347° (NNW) 2,565 6.4 -10.5°
Maximum altitude 12:44:51 76° 263° (W) 936 4.3 -9.6°
Drops below altitude 10° 12:50:48 10° 178° (S) 2,605 7.1 -8.6°
Sets 12:53:17 0° 177° (S) 3,550 7.8 -8.1°
